Theta_e
315 315 315 314 314 314 315 315 315 317 318 317 319 318 316 316 316 316 316 316 315 315 315 315 315 315 316 319 319 318 323 321 320 320 320 318 318 318 316 315 315 314 314 313 313
317 317 316 315 314 314 315 316 316 318 318 317 318 317 316 316 316 317 317 317 317 315 315 315 316 316 319 319 319 321 322 320 319 319 319 318 317 316 316 317 314 314 314 312 308
317 317 317 316 315 315 316 317 317 318 320 316 317 319 316 316 318 316 316 315 315 315 316 316 316 317 319 318 318 319 320 318 317 317 317 316 316 314 316 316 313 313 313 308 306
318 317 317 317 316 316 317 318 318 319 320 318 317 319 316 316 321 317 313 313 313 313 313 315 317 318 319 319 317 318 317 317 317 315 315 316 314 315 315 313 310 311 308 305 305
319 317 317 318 317 317 318 319 319 320 321 319 319 319 317 318 317 316 313 313 312 312 312 313 316 316 318 317 317 318 317 315 314 313 314 313 314 314 314 311 310 308 305 304 304
320 317 317 318 319 318 319 320 320 321 322 320 320 318 317 320 316 315 314 313 312 311 312 313 314 314 317 317 317 317 315 315 313 314 313 314 314 313 314 309 309 304 304 303 302
322 318 318 319 320 320 320 321 321 322 322 319 320 318 319 318 313 313 313 314 313 311 312 313 313 314 316 318 314 314 316 316 314 313 313 313 315 315 312 307 308 304 304 303 301
322 320 319 320 320 320 321 322 322 322 321 319 318 317 318 313 310 310 312 314 312 312 312 313 312 312 314 314 315 316 316 317 315 314 313 313 314 315 309 308 307 303 302 302 301
322 320 320 320 320 320 322 322 322 322 319 319 318 319 317 315 312 310 311 313 310 312 312 312 312 313 315 318 318 318 318 317 315 313 313 314 314 315 307 306 303 302 301 300 300
320 321 320 320 320 321 322 322 322 319 318 319 318 318 315 317 314 312 312 312 310 312 315 314 314 316 319 315 317 315 314 315 316 314 314 314 314 311 305 303 301 300 299 299 299
318 320 320 319 320 321 321 323 319 320 319 316 315 315 314 315 314 313 311 310 310 314 319 316 314 317 317 313 312 314 315 315 314 314 312 311 310 309 302 302 301 299 298 297 297
316 319 319 319 320 319 321 317 312 313 314 315 314 316 316 314 313 312 310 312 314 318 317 318 320 314 312 313 314 314 313 312 313 313 310 309 309 307 301 299 300 298 298 297 296
314 318 319 319 320 316 317 315 313 309 315 315 314 317 315 314 313 312 310 311 314 317 317 315 316 310 312 314 313 313 311 312 311 310 310 309 309 307 301 299 298 298 298 297 295
313 318 320 320 315 318 312 314 312 309 319 319 316 315 312 312 312 309 309 310 314 314 312 310 310 312 313 313 311 311 308 308 309 309 309 308 307 309 303 302 299 298 297 296 294
312 317 321 321 319 313 312 312 312 311 328 316 317 312 312 311 311 311 310 308 312 313 308 312 308 309 310 310 309 310 305 306 308 308 308 308 308 310 307 307 299 298 296 295 294
312 315 322 319 316 312 309 311 310 320 325 319 317 316 314 310 311 310 310 307 307 309 309 308 308 309 311 309 306 304 307 307 307 307 308 309 306 308 307 302 298 297 295 294 294
311 314 322 320 314 311 307 309 320 321 318 319 317 314 314 316 314 311 312 311 312 313 315 311 311 308 305 308 307 306 306 307 312 313 314 305 303 304 300 298 297 296 294 293 293
312 317 321 321 317 308 305 315 321 321 323 313 314 313 316 314 314 310 310 313 310 309 309 311 312 309 306 307 306 305 304 305 306 309 308 303 302 304 300 297 297 295 294 293 292
317 317 319 322 318 306 307 318 318 320 319 316 314 317 319 311 310 310 311 313 311 309 310 309 307 303 300 302 303 306 304 303 302 303 301 303 303 300 299 298 297 295 293 292 292
318 317 317 319 316 303 309 317 318 317 313 314 318 318 319 318 313 313 314 310 307 305 304 307 307 305 299 299 299 300 301 300 300 301 304 304 303 302 298 297 296 294 293 292 292
317 316 315 317 314 307 312 315 315 315 313 316 317 318 318 316 315 315 315 310 307 303 302 304 303 303 300 300 302 298 298 297 297 299 299 301 303 298 297 296 294 294 292 292 291
316 315 314 308 310 311 313 315 313 311 310 313 312 315 316 316 317 315 314 313 304 301 302 301 302 302 302 298 296 296 297 298 297 299 296 297 297 299 297 296 294 293 292 291 291
315 313 313 304 314 315 312 311 310 311 311 311 312 311 313 313 313 312 313 299 302 300 301 298 300 301 302 296 295 295 296 297 297 295 297 297 298 297 296 297 294 292 291 291 290
315 314 309 308 311 314 316 315 313 311 311 312 313 313 313 310 311 312 308 298 298 298 295 297 299 301 306 306 296 295 295 296 295 296 297 297 297 297 297 295 293 291 291 290 289
315 312 312 313 311 312 315 315 316 317 313 311 312 312 312 311 312 309 306 297 296 295 295 296 299 299 299 299 297 296 295 295 294 295 296 297 296 296 295 294 291 291 291 290 289
316 314 312 311 316 313 314 316 316 316 317 314 312 313 309 310 311 315 305 304 301 297 296 296 298 296 295 295 295 295 295 295 295 294 294 295 295 295 294 292 291 291 290 289 289
314 315 314 316 315 316 316 315 316 315 315 315 314 313 311 307 305 302 303 301 302 299 297 296 296 296 298 295 293 296 296 295 295 295 294 294 295 295 292 291 291 290 289 289 287
Wind_Speed
12 14 15 16 18 19 20 21 23 25 27 27 31 21 10 8 8 10 12 12 11 9 8 8 7 7 2 1 1 3 4 1 2 3 3 2 7 8 4 3 8 8 14 18 18
12 13 14 16 17 19 20 20 21 22 25 26 31 19 7 5 9 15 14 14 11 10 9 6 4 5 3 1 0 3 3 4 5 6 7 10 8 9 5 12 15 15 18 18 18
11 12 14 15 17 17 18 19 19 20 23 24 30 20 7 3 3 11 14 13 11 9 9 8 7 4 4 1 1 2 4 3 3 4 9 9 4 4 6 11 14 17 18 16 19
11 12 14 15 16 17 18 20 19 20 23 25 28 21 7 4 2 8 10 12 11 10 11 9 5 6 5 4 2 4 4 0 1 6 8 7 6 5 14 11 18 14 12 16 20
11 12 14 16 16 17 17 19 19 19 23 25 29 17 2 5 4 5 7 11 14 12 11 9 6 6 4 4 6 3 5 1 3 9 7 6 6 4 12 16 14 14 17 18 20
11 13 15 16 17 17 17 19 19 19 23 22 28 9 3 2 3 3 4 7 13 10 9 7 5 4 4 3 3 1 7 6 1 2 3 8 2 5 4 18 16 16 16 17 20
12 13 15 16 17 18 18 18 20 20 24 19 20 3 4 4 3 3 5 4 11 12 8 7 9 2 4 4 1 4 4 9 6 2 2 13 7 5 7 14 13 13 14 14 18
12 14 16 17 18 18 19 19 21 21 19 23 8 3 2 7 3 5 7 2 10 11 7 8 8 2 2 4 4 3 2 3 6 3 3 10 12 7 14 8 11 8 9 11 15
13 15 17 18 18 19 20 21 22 21 8 18 1 2 3 6 3 5 8 4 10 12 8 10 5 3 3 7 10 9 5 9 5 5 2 5 13 7 10 13 11 7 11 14 17
14 16 17 18 19 19 21 22 20 11 6 7 1 1 3 3 5 6 9 6 9 13 9 4 4 6 7 8 9 12 12 8 12 2 10 9 14 15 12 16 9 9 11 15 18
15 16 17 18 18 19 22 22 14 4 24 5 14 6 3 3 5 4 8 11 9 8 10 7 6 10 4 6 10 10 11 13 14 7 7 12 15 7 16 10 7 8 12 16 20
15 15 17 17 17 14 17 11 9 9 11 14 5 6 5 2 1 4 7 5 6 14 11 12 13 4 6 6 6 11 15 15 7 3 11 15 17 17 15 8 5 6 12 16 21
15 15 16 16 15 10 12 13 14 14 6 4 3 2 3 1 1 2 5 6 6 12 12 10 12 4 5 8 12 13 14 9 10 13 17 14 18 15 14 11 5 4 10 15 24
15 14 14 14 10 11 8 13 15 15 5 4 4 3 2 1 2 3 4 4 5 9 7 10 4 4 8 12 4 12 5 9 14 13 11 17 8 13 18 14 4 6 14 22 31
16 13 13 10 10 9 9 11 13 6 6 2 3 3 3 3 1 2 4 1 9 15 2 3 5 8 11 7 3 6 9 10 16 18 21 13 7 10 18 15 2 8 17 25 32
18 14 12 10 9 8 8 9 9 4 8 3 2 2 3 4 2 2 2 2 3 6 8 15 1 3 5 2 3 9 10 18 20 12 6 2 3 7 4 2 3 11 22 31 32
19 15 11 10 9 6 5 6 5 6 3 5 2 1 1 4 4 2 3 6 6 6 7 6 9 2 3 6 6 7 9 7 4 5 9 10 8 11 10 5 5 13 25 29 28
19 16 13 12 9 6 4 4 8 8 8 3 2 1 5 5 3 2 4 9 9 7 8 7 9 8 3 3 5 1 3 4 7 6 14 14 9 5 13 9 2 17 28 27 30
16 14 16 13 10 9 7 8 6 3 2 4 4 7 11 2 4 4 10 13 3 11 8 4 6 3 3 1 2 6 5 4 5 4 6 8 10 6 11 4 7 22 27 27 32
16 13 18 17 11 12 7 16 12 2 4 3 7 7 14 12 5 5 4 6 5 7 3 1 9 5 4 0 1 4 5 2 4 5 7 8 19 12 6 8 13 22 26 29 35
15 8 11 15 16 10 11 12 16 18 11 8 12 16 13 13 14 15 10 7 9 8 7 1 5 4 3 9 12 5 5 6 4 4 5 9 6 5 4 5 15 22 27 33 39
20 6 10 17 11 10 13 11 12 11 15 10 5 15 20 17 18 13 14 8 14 14 9 6 4 9 13 3 6 7 11 14 6 7 8 9 15 14 5 4 17 25 29 35 37
13 15 13 23 9 13 14 14 13 13 11 10 12 9 9 16 9 16 15 4 12 12 12 9 6 4 4 3 3 6 11 17 15 5 15 10 9 8 11 20 25 26 30 34 37
15 5 8 21 19 17 19 23 23 17 23 25 16 17 11 10 15 12 8 4 8 11 3 8 7 12 12 13 1 6 13 17 17 12 16 21 29 20 21 17 24 29 31 34 36
22 9 13 7 11 20 23 16 19 22 18 10 9 23 17 12 16 18 16 7 5 6 6 5 10 14 18 19 16 16 16 18 22 24 21 28 21 21 19 19 22 29 33 36 36
27 14 13 12 24 20 22 22 30 27 21 16 21 15 18 27 24 21 8 6 6 13 13 6 5 5 6 13 15 19 19 21 23 24 26 25 29 21 25 16 24 29 34 33 34
41 34 24 22 15 16 20 28 30 22 30 38 27 19 20 24 17 3 9 8 9 13 15 8 6 5 8 4 9 14 21 25 26 21 20 20 24 18 14 14 22 29 29 28 34
Wind_Direction
18 15 14 8 5 2 3 1 1 3 0 1 6 8 27 64 48 37 35 24 14 2 2 8 360 332 349 318 33 311 245 281 54 308 356 73 334 357 325 314 45 31 24 359 358
9 9 5 4 1 359 357 356 357 0 356 356 4 9 24 85 62 48 26 4 2 10 20 5 338 326 261 253 216 281 286 63 25 328 317 334 351 338 346 53 20 9 359 16 20
359 0 356 357 356 356 352 352 353 355 352 352 359 5 25 136 87 18 22 30 34 25 9 351 341 326 270 276 21 23 348 45 56 306 320 328 340 339 337 61 20 355 0 24 28
347 351 349 349 351 351 351 348 351 350 349 348 354 359 36 80 17 3 29 29 26 14 3 348 327 314 294 310 23 294 69 41 241 290 319 340 326 42 66 65 360 28 50 40 35
339 343 343 344 346 346 348 346 346 346 344 344 349 353 89 72 54 10 31 36 20 14 359 358 356 338 315 326 312 240 101 26 295 298 312 328 357 80 73 15 35 70 54 41 37
332 337 338 340 341 343 345 342 341 343 340 337 346 355 121 167 89 7 15 24 11 7 350 354 338 312 262 271 263 347 301 278 113 312 291 353 328 184 71 5 74 72 54 40 32
325 332 334 336 337 339 340 340 337 339 336 335 346 51 112 159 95 16 337 330 352 357 339 335 333 313 323 285 79 300 297 113 151 216 288 323 193 166 2 12 83 56 40 32 26
319 326 330 332 336 337 337 335 334 335 330 336 353 167 126 149 74 16 344 320 340 343 336 323 329 273 252 298 190 210 225 5 129 233 183 330 304 103 19 72 111 69 44 26 16
313 322 326 330 334 336 335 332 334 326 311 342 79 168 163 204 231 342 352 317 341 341 318 337 323 265 236 284 300 205 332 315 299 213 213 318 297 317 50 120 121 69 32 14 7
305 319 324 328 333 335 335 334 337 322 304 346 275 181 184 219 257 328 348 337 331 336 328 326 276 273 233 346 317 303 303 300 291 36 312 277 279 314 96 125 113 58 24 15 12
298 313 319 325 333 338 340 357 359 312 326 270 289 241 242 263 260 302 337 330 322 302 327 330 298 299 322 326 303 299 290 293 290 112 306 304 300 335 125 136 122 49 23 16 13
294 307 315 324 333 340 350 17 3 316 310 305 252 232 237 247 255 303 329 317 318 317 318 298 290 19 312 301 292 293 291 298 313 191 310 308 297 134 156 142 129 37 20 11 358
287 300 309 321 330 334 348 350 339 337 272 272 223 198 194 240 248 286 346 323 307 306 317 284 293 325 287 295 295 288 302 316 298 305 282 286 283 157 173 154 135 32 3 358 353
284 295 304 318 320 329 330 336 331 338 272 162 184 196 203 170 223 240 339 344 291 302 320 283 358 300 284 278 300 297 12 316 304 310 302 317 290 169 181 179 130 18 4 354 350
277 283 290 304 305 310 314 324 322 338 291 105 153 176 201 213 155 228 295 273 274 293 243 295 294 289 281 300 331 297 342 303 290 285 298 277 242 258 166 200 103 9 359 354 352
269 272 278 286 286 289 304 313 317 246 245 161 150 166 222 199 212 342 268 261 262 273 243 268 282 255 288 265 266 303 287 299 275 268 263 142 260 237 183 181 356 357 355 352 347
260 262 266 267 270 276 293 312 269 235 108 171 189 205 307 289 294 325 273 240 262 284 246 195 216 179 243 259 210 261 307 313 298 232 276 152 317 248 142 128 36 356 353 346 342
254 254 254 256 256 249 210 234 248 261 247 89 135 164 246 350 208 223 238 272 211 244 282 275 267 186 141 269 342 316 291 263 288 295 294 313 254 294 135 142 10 352 351 344 336
263 260 265 253 245 220 190 226 255 270 57 174 198 259 274 195 262 255 234 254 265 202 220 252 248 124 32 341 285 139 215 14 288 261 278 237 239 142 159 215 350 342 347 340 331
252 267 265 251 237 208 218 234 242 155 149 215 252 240 270 280 218 225 255 170 204 209 199 359 284 173 117 190 159 264 123 180 201 270 269 268 299 273 188 340 340 345 339 333 328
243 261 246 227 209 200 223 227 245 242 203 221 249 257 260 273 263 272 259 185 187 171 193 168 236 149 149 209 226 186 217 222 285 241 263 299 283 114 5 358 345 333 334 330 330
230 233 240 197 189 216 229 238 238 229 217 248 282 261 264 264 274 245 253 240 166 160 172 187 248 253 246 46 285 273 244 215 217 216 226 266 275 281 224 355 343 333 330 329 328
227 236 239 190 222 229 239 249 252 231 216 209 231 224 250 254 260 237 257 52 180 181 177 173 206 250 236 244 181 216 222 234 234 308 245 251 256 155 210 328 337 328 325 325 326
220 228 192 207 241 252 245 242 240 222 252 241 250 245 232 243 235 263 221 181 207 214 140 184 228 229 255 295 101 215 215 216 213 240 259 240 270 274 291 313 324 319 321 321 321
219 224 212 205 223 236 240 252 250 244 220 236 247 231 226 247 234 239 240 131 194 208 198 218 252 241 261 273 278 259 255 222 221 236 244 269 262 278 298 315 319 313 319 321 320
217 211 211 258 233 213 224 232 240 241 238 225 234 225 218 233 224 264 202 157 186 197 200 205 251 291 273 267 274 271 257 247 246 242 246 258 271 275 285 311 309 315 318 315 320
223 231 222 236 222 233 221 232 242 240 243 244 246 243 238 239 253 138 162 179 214 189 204 198 203 197 263 8 318 280 246 238 240 232 235 246 256 279 291 309 311 311 309 313 319